Change the Weather History Date:

Tuesday, June 4, 2013

  Actual Average (KCLT) Record (KCLT)
Temperature  
Mean Temperature 74 °F 73 °F  
Max Temperature 82 °F 84 °F 98 °F (1911)
Min Temperature 66 °F 62 °F 50 °F (1988)
Degree Days  
Heating Degree Days 0 0  
Month to date heating degree days 0  
Since 1 June heating degree days 0  
Since 1 July heating degree days 3385  
Cooling Degree Days 9 8  
Month to date cooling degree days 30  
Year to date cooling degree days 193  
Since 1 June cooling degree days 30  
Growing Degree Days 24 (Base 50)    
Moisture  
Dew Point 65 °F    
Average Humidity 75    
Maximum Humidity 94    
Minimum Humidity 58    
Precipitation  
Precipitation 0.00 in 0.13 in 2.12 in (1992)
Month to date precipitation 0.52  
Year to date precipitation 17.48  
Snow  
Snow 0.00 in 0.00 in 0.00 in ()
Month to date snowfall 0.0  
Since 1 June snowfall 0.0  
Since 1 July snowfall 4.3  
Snow Depth -    
Sea Level Pressure  
Sea Level Pressure 30.01 in    
Wind  
Wind Speed 5 mph (NE)    
Max Wind Speed 12 mph    
Max Gust Speed -    
Visibility 10 miles    
Events      
T = Trace of Precipitation, MM = Missing Value Source: NWS Daily Summary

Daily Weather History Graph

Daily Weather History Graph

Search for Another Location

Airport or City:

Trip Planner

Search our weather history database for the weather conditions in past years. The results will help you decide how hot, cold, wet, or windy it might be!

Date:

Astronomy

Jun. 04, 2013 Rise Set
Actual Time 6:08 AM EDT 8:33 PM EDT
Civil Twilight 5:39 AM EDT 9:02 PM EDT
Nautical Twilight 5:03 AM EDT 9:38 PM EDT
Astronomical Twilight 4:23 AM EDT 10:18 PM EDT
Moon 3:30 AM EDT (6/4) 5:07 PM EDT (6/4)
Length of Visible Light 15h 23m
Length of Day
14h 24m
Waning Crescent, 14% of the Moon is Illuminated
Jun 4
Waning Crescent
Jun 8
New
Jun 16
First Quarter
Jun 23
Full
Jun 30
Last Quarter

Hourly Weather History & Observations

Time (EDT) Temp. Heat Index Dew Point Humidity Pressure Visibility Wind Dir Wind Speed Gust Speed Precip Events Conditions
12:53 AM 66.9 °F - 64.0 °F 90% 29.98 in 10.0 mi ENE 4.6 mph - N/A   Clear
1:53 AM 68.0 °F - 64.9 °F 90% 29.97 in 10.0 mi Calm Calm - N/A   Scattered Clouds
2:53 AM 66.0 °F - 64.0 °F 93% 29.96 in 10.0 mi Calm Calm - N/A   Scattered Clouds
3:53 AM 66.9 °F - 64.9 °F 93% 29.96 in 10.0 mi Calm Calm - N/A   Scattered Clouds
4:53 AM 66.9 °F - 64.0 °F 90% 29.96 in 10.0 mi NE 4.6 mph - N/A   Mostly Cloudy
5:06 AM 66.2 °F - 64.4 °F 94% 29.96 in 10.0 mi Calm Calm - N/A   Mostly Cloudy
5:16 AM 66.2 °F - 64.4 °F 94% 29.97 in 10.0 mi NE 3.5 mph - N/A   Mostly Cloudy
5:53 AM 69.1 °F - 64.0 °F 84% 29.98 in 10.0 mi NNE 6.9 mph - N/A   Overcast
6:01 AM 69.8 °F - 64.4 °F 83% 29.98 in 10.0 mi NNE 6.9 mph - N/A   Overcast
6:29 AM 69.8 °F - 64.4 °F 83% 29.99 in 10.0 mi NE 8.1 mph - N/A   Overcast
6:42 AM 69.8 °F - 64.4 °F 83% 30.00 in 10.0 mi NNE 9.2 mph - N/A   Mostly Cloudy
6:53 AM 69.1 °F - 64.9 °F 87% 30.00 in 10.0 mi NE 8.1 mph - N/A   Overcast
7:53 AM 72.0 °F - 64.0 °F 76% 30.01 in 10.0 mi NE 9.2 mph - N/A   Partly Cloudy
8:53 AM 75.0 °F - 63.0 °F 66% 30.02 in 10.0 mi NE 11.5 mph - N/A   Clear
9:53 AM 77.0 °F - 64.0 °F 64% 30.04 in 10.0 mi NE 8.1 mph - N/A   Partly Cloudy
10:53 AM 79.0 °F - 64.9 °F 62% 30.04 in 10.0 mi NNE 9.2 mph - N/A   Mostly Cloudy
11:53 AM 78.1 °F - 64.9 °F 64% 30.06 in 10.0 mi Variable 4.6 mph - N/A   Mostly Cloudy
12:53 PM 81.0 °F 83.3 °F 66.9 °F 62% 30.05 in 10.0 mi Variable 5.8 mph - N/A   Partly Cloudy
1:53 PM 82.0 °F 84.5 °F 66.9 °F 60% 30.04 in 10.0 mi East 6.9 mph - N/A   Scattered Clouds
2:53 PM 81.0 °F 83.0 °F 66.0 °F 60% 30.02 in 10.0 mi Variable 6.9 mph - N/A   Mostly Cloudy
3:53 PM 82.0 °F 84.1 °F 66.0 °F 58% 30.02 in 10.0 mi East 5.8 mph - N/A   Mostly Cloudy
4:53 PM 80.1 °F 81.9 °F 64.9 °F 60% 30.02 in 10.0 mi ENE 6.9 mph - N/A   Overcast
5:53 PM 82.0 °F 84.5 °F 66.9 °F 60% 30.01 in 10.0 mi ENE 5.8 mph - N/A   Clear
6:53 PM 81.0 °F 83.0 °F 66.0 °F 60% 30.02 in 10.0 mi ENE 5.8 mph - N/A   Partly Cloudy
7:53 PM 78.1 °F - 66.0 °F 66% 30.04 in 10.0 mi ENE 5.8 mph - N/A   Partly Cloudy
8:53 PM 75.9 °F - 66.0 °F 71% 30.05 in 10.0 mi ENE 4.6 mph - N/A   Clear
9:53 PM 75.0 °F - 66.0 °F 73% 30.07 in 10.0 mi ENE 5.8 mph - N/A   Mostly Cloudy
10:53 PM 73.0 °F - 64.9 °F 76% 30.07 in 10.0 mi ENE 6.9 mph - N/A   Clear
11:53 PM 72.0 °F - 64.9 °F 78% 30.08 in 10.0 mi ENE 4.6 mph - N/A   Overcast